This is the latest recevied weather packets stored in our database for station/object LU8FCJ-5. If no packets are shown the sender has not sent any weather packets the latest 10 day(s).
| Time | Temp. | Humidity | Pressure | Rain* | Wind** | Luminosity | Snow |
|---|---|---|---|---|---|---|---|
| 1778101225 | 27.22° C | 74% | 1000.6 hPa | 0 mm | - | - | - |
| 1778100910 | 27.78° C | 73% | 1000.4 hPa | 0 mm | - | - | - |
| 1778100600 | 27.78° C | 72% | 1000.3 hPa | 0 mm | - | - | - |
| 1778100291 | 27.78° C | 72% | 1000.4 hPa | 0 mm | - | - | - |
| 1778099980 | 28.33° C | 72% | 1000.2 hPa | 0 mm | - | - | - |
| 1778099670 | 28.33° C | 71% | 1000.1 hPa | 0 mm | - | - | - |
| 1778099374 | 28.33° C | 71% | 1000 hPa | 0 mm | - | - | - |
| 1778099050 | 28.89° C | 70% | 1000.2 hPa | 0 mm | - | - | - |
| 1778098740 | 28.89° C | 70% | 1000.3 hPa | 0 mm | - | - | - |
| 1778098429 | 28.89° C | 70% | 1000.3 hPa | 0 mm | - | - | - |
| 1778098119 | 28.89° C | 70% | 1000.3 hPa | 0 mm | - | - | - |
| 1778097809 | 28.89° C | 69% | 1000 hPa | 0 mm | - | - | - |
| 1778097499 | 28.89° C | 69% | 1000.2 hPa | 0 mm | - | - | - |
| 1778097189 | 28.89° C | 69% | 1000.2 hPa | 0 mm | - | - | - |
| 1778096879 | 28.89° C | 69% | 1000.1 hPa | 0 mm | - | - | - |
| 1778096571 | 29.44° C | 68% | 1000.7 hPa | 0 mm | - | - | - |
| 1778096258 | 29.44° C | 68% | 1000.4 hPa | 0 mm | - | - | - |
| 1778095948 | 29.44° C | 68% | 1000.4 hPa | 0 mm | - | - | - |
| 1778095638 | 29.44° C | 69% | 1000.7 hPa | 0 mm | - | - | - |
| 1778095329 | 29.44° C | 68% | 1000.8 hPa | 0 mm | - | - | - |
| 1778095018 | 29.44° C | 67% | 1000.7 hPa | 0 mm | - | - | - |
| 1778094707 | 30° C | 67% | 1000.9 hPa | 0 mm | - | - | - |
| 1778094397 | 29.44° C | 68% | 1001 hPa | 0 mm | - | - | - |
| 1778094087 | 29.44° C | 69% | 1001.1 hPa | 0 mm | - | - | - |
| 1778093779 | 28.89° C | 70% | 1001.3 hPa | 0 mm | - | - | - |
* Rain latest hour (hover to see other rain measurements)
** Current wind speed in m/s (hover to see current wind gust speed)